Location: Newark
(36.0797°N, 3.9744°E)
Time: 03:27:15
(UTC+00:00)

Vanguard 1 - Visible Passes

Search period start: 08 December 2019 00:00
Search period end: 18 December 2019 00:00
Orbit: 652 x 3831 km, 34.3° (Epoch: 07 December)

Date Brightness Start Highest point End Pass type
(mag) Time Alt. Az. Time Alt. Az. Time Alt. Az.
08 Dec 14.1 00:10:27 13° SE 00:11:44 13° SE 00:20:34 10° ESE visible
08 Dec 13.4 02:23:20 27° S 02:35:30 43° SE 02:54:03 10° E visible
08 Dec 12.8 04:37:46 10° WSW 05:01:20 72° SSE 05:17:45 10° E visible
09 Dec 13.9 00:31:55 20° SE 00:32:28 20° SE 00:46:34 10° E visible
09 Dec 13.2 02:44:46 32° SSW 02:56:40 51° SSE 03:15:46 10° E visible
09 Dec 12.8 04:59:10 10° WSW 05:22:53 78° SSE 05:38:56 10° E visible
10 Dec 13.7 00:53:02 27° SE 00:53:12 27° SE 01:10:15 10° E visible
10 Dec 13.0 03:05:51 35° SSW 03:17:56 59° SSE 03:37:18 10° ENE visible
10 Dec 12.7 05:20:46 10° WSW 05:44:30 82° S 06:00:06 10° E visible
11 Dec 13.5 01:13:52 35° SE 01:14:00 35° SE 01:32:57 10° E visible
11 Dec 12.9 03:26:40 36° SW 03:39:20 67° SSE 03:58:42 10° E visible
11 Dec 12.7 05:42:31 10° W 06:06:09 84° S 06:21:15 10° E visible
12 Dec 13.2 01:34:28 43° SE 01:34:53 43° SE 01:55:07 10° E visible
12 Dec 12.8 03:47:15 35° SW 04:00:51 74° SSE 04:20:03 10° E visible
12 Dec 12.7 06:04:22 10° W 06:27:47 85° S 06:42:23 10° E visible
12 Dec 14.1 23:42:08 14° E 23:42:08 14° E 23:46:19 10° E visible
13 Dec 13.0 01:54:53 52° SSE 01:55:55 52° SE 02:16:57 10° ENE visible
13 Dec 12.8 04:07:39 32° WSW 04:22:29 79° SSE 04:41:21 10° E visible
14 Dec 13.9 00:02:24 21° E 00:02:24 21° E 00:10:10 10° E visible
14 Dec 12.9 02:15:09 59° SSE 02:17:06 60° SSE 02:38:35 10° ENE visible
14 Dec 12.8 04:27:54 28° WSW 04:44:12 83° S 05:02:39 10° E visible
15 Dec 13.7 00:22:33 27° ESE 00:22:33 27° ESE 00:33:00 10° E visible
15 Dec 12.8 02:35:17 64° S 02:38:27 68° SSE 03:00:07 10° ENE visible
15 Dec 12.8 04:48:02 24° W 05:05:58 85° S 05:23:54 10° E visible
16 Dec 13.5 00:42:36 35° ESE 00:42:36 35° ESE 00:55:18 10° ENE visible
16 Dec 12.7 02:55:19 64° SSW 02:59:58 75° SSE 03:21:36 10° E visible
16 Dec 12.8 05:08:03 20° W 05:27:44 85° S 05:45:08 10° E visible
17 Dec 13.3 01:02:32 42° ESE 01:02:32 42° ESE 01:17:15 10° ENE visible
17 Dec 12.7 03:15:16 61° SW 03:21:38 80° SSE 03:43:03 10° E visible
17 Dec 12.8 05:27:59 15° W 05:49:27 83° S 06:06:19 10° ESE visible
